Regional Weather Roundup
Issued by NWS

Home | Current Version | Previous Version | Graphics & Text | Print | Product List | Glossary On
Versions: 1 2 3 4 5 6 7 8 9 10 11 12 13 14 15 16 17 18 19 20 21 22 23 24 25 26 27 28 29 30 31 32 33 34 35 36 37 38 39 40 41 42 43 44 45 46 47 48 49 50
000
ASUS43 KMKX 232311
RWRWI

WISCONSIN REGIONAL WEATHER ROUNDUP
NATIONAL WEATHER SERVICE MILWAUKEE/SULLIVAN WI
600 PM CDT THU OCT 23 2014

NOTE: "FAIR" INDICATES FEW OR NO CLOUDS BELOW 12,000 FEET WITH NO
SIGNIFICANT WEATHER AND/OR OBSTRUCTIONS TO VISIBILITY.

WIZ001-002-006>008-014>016-023>028-240000-
NORTHWEST WISCONSIN

CITY           SKY/WX    TMP DP  RH WIND       PRES   REMARKS
SUPERIOR ARPT  CLEAR     53  48  86 S3        29.94S
ASHLAND        CLOUDY    53  48  83 S5        29.97S
HAYWARD        CLOUDY    52  48  86 S8        29.98S
SIREN          CLEAR     55  50  83 SE5       29.96S
CUMBERLAND     CLEAR     52  46  82 SE6       29.98S
RICE LAKE      CLOUDY    52  49  90 E6        30.01S
CHETEK         CLOUDY    51  50  95 CALM      30.00S
LADYSMITH      FOG       49  48  97 CALM      30.02R VSB 1
EAU CLAIRE     CLOUDY    52  50  93 S3        30.00R FOG
MENOMONIE      CLOUDY    53  51  92 SE5       30.01R
NEW RICHMOND   CLEAR     55  49  82 SE6       29.98S
OSCEOLA        CLEAR     56  51  82 SE8       29.99S
$$

WIZ003>005-009-010-017-018-240000-
NORTH CENTRAL WISCONSIN

CITY           SKY/WX    TMP DP  RH WIND       PRES   REMARKS
MANITOWISH WTR CLOUDY    45  45 100 SW5       29.99S FOG
ARBOR VITAE    FOG       45  44  96 SW5       30.00R VSB 1
WOODRUFF       FOG       45  44  96 SW5       30.00R VSB 1
RHINELANDER    CLOUDY    44  44 100 S5        30.01S FOG
EAGLE RIVER    CLOUDY    44  44 100 CALM      29.99F FOG
LAND O LAKES   CLOUDY    45  44  98 SW3       30.00S FOG
PHILLIPS       FOG       46  46 100 SW6       30.00R VSB 1
TOMAHAWK       CLOUDY    45  43  95 CALM      30.01S FOG
MEDFORD        FOG       46  46 100 S3        30.00F VSB 1/4
MERRILL        CLOUDY    46  46 100 CALM      30.01S FOG
$$

WIZ029-030-035-036-043>047-240000-
CENTRAL WISCONSIN

CITY           SKY/WX    TMP DP  RH WIND       PRES   REMARKS
WAUSAU         CLOUDY    46  45  96 S5        30.01S FOG
MOSINEE        FOG       45  45 100 VRB6      30.03S VSB 1/4
MARSHFIELD     FOG       47  46  97 S5        30.01S VSB 1/2
STEVENS POINT  CLOUDY    45  44  99 S5        30.03S FOG
WAUPACA        LGT RAIN  49  48  96 CALM      30.04F
WAUTOMA        CLOUDY    46  46 100 CALM      30.04F FOG
WISC RAPIDS    CLOUDY    47  46  97 S5        30.03F FOG
CAMP DOUGLAS   CLOUDY    48  48 100 SW2       30.03S FOG
$$

WIZ011>013-019>022-031-037>040-048>050-240000-
NORTHEAST WISCONSIN

CITY           SKY/WX    TMP DP  RH WIND       PRES   REMARKS
ANTIGO         FOG       43  43 100 S6        30.02S VSB 1/4
SHAWANO        RAIN      49  47  93 CALM      30.05S
OCONTO         CLOUDY    49  47  94 CALM      30.04F
STURGEON BAY   CLOUDY    48  45  87 S7        30.06S
GREEN BAY      CLOUDY    49  48  97 CALM      30.05S FOG
MANITOWOC      LGT RAIN  50  48  93 S10       30.06F FOG
APPLETON       CLOUDY    48  46  93 S9        30.04F FOG
CLINTONVILLE   CLOUDY    46  45  93 CALM      30.04F FOG
OSHKOSH        CLOUDY    49  48  97 CALM      30.04S FOG
$$

WIZ032>034-041-042-053>061-240000-
SOUTHWEST WISCONSIN

CITY           SKY/WX    TMP DP  RH WIND       PRES   REMARKS
LA CROSSE      CLOUDY    50  48  93 SE6       30.02F FOG
SPARTA         CLOUDY    47  47  98 CALM      30.04S FOG
VIROQUA        CLOUDY    47  47 100 SW3       30.03R VSB<1/4
BOSCOBEL       CLOUDY    51  48  89 CALM      30.05R FOG
PRAIRIE DU CHI CLOUDY    51  48  90 CALM      30.04R FOG
PLATTEVILLE    CLOUDY    50  49  95 S3        30.04S
$$

WIZ056-057-062-063-064-067-068-240000-
SOUTH CENTRAL WISCONSIN

CITY           SKY/WX    TMP DP  RH WIND       PRES   REMARKS
REEDSBURG      CLOUDY    47  46  98 CALM      30.03S FOG
BARABOO/DELLS  DRIZZLE   47  46  93 CALM      30.04R
LONE ROCK      CLOUDY    53  48  83 CALM      30.04S HAZE
MINERAL POINT  CLOUDY    52  48  87 SW5       30.03S FOG
MADISON        CLOUDY    52  48  86 CALM      30.04S
MIDDLETON      CLOUDY    52  50  93 CALM      30.04S
WATERTOWN      CLOUDY    52  52 100 CALM      30.03S
MONROE         CLOUDY    52  50  93 SW7       30.04R
JANESVILLE     LGT RAIN  54  48  82 S9        30.05
$$

WIZ051-052-058>065-066-070>072-240000-
SOUTHEAST WISCONSIN

CITY           SKY/WX    TMP DP  RH WIND       PRES   REMARKS
MILWAUKEE      LGT RAIN  52  47  83 CALM      30.06S
WAUKESHA       CLOUDY    54  45  71 CALM      30.06S
MILWAUKEE/TIMM CLOUDY    52  48  87 CALM      30.06S
RACINE         CLOUDY    54  47  77 S7        30.07F
BURLINGTON     HVY RAIN  53  44  74 S8        30.03F
KENOSHA        CLOUDY    55  45  68 S3        30.05F
FOND DU LAC    CLOUDY    50  47  89 CALM      30.04F
SHEBOYGAN      LGT RAIN  49  47  93 S5        30.06F FOG
WEST BEND      CLOUDY    50  46  87 CALM      30.05S FOG
JUNEAU         CLOUDY    49  48  95 E3        30.05S
$$

LSZ147-162-240000-
LAKE SUPERIOR

STATION/POSITION TIME  TEMP    WIND        PRES    WAVE
                       AIR SEA DIR/SP/G            HT/PER
                 (UTC) (F)     (DEG/KT/KT) (MB)    (FT/S)
W MID LAKE BUOY  2250   47 46  220/  6/  6 1014.8F   1/ 3
DEVILS ISLAND    2300   51     170/  4/  4 1014.8S
PORT WING        2200   56     180/  6/  8 1014.2F
SAXON HARBOR     2200   54     200/  5/  7 1014.9R
$$

LMZ867-665-643>646-240000-
LAKE MICHIGAN

STATION/POSITION TIME  TEMP    WIND        PRES    WAVE
                       AIR SEA DIR/SP/G            HT/PER
                 (UTC) (F)     (DEG/KT/KT) (MB)    (FT/S)
CHAMBERS ISLAND  2200   51     160/  3/  7 1017.6S
N MID LAKE BUOY  2250   51 51  190/ 17/ 21 1017.7F   3/ 5
NORTHPORT PIER   2200   51     180/  4/ 10 1017.6S
SISTER BAY       2228          180/ 11/ 13   N/A
KEWAUNEE LAKESHO 2200   51     180/ 11/ 13 1017.2R
SHEBOYGAN LAKESH 2300   50 51  180/  8/  9 1018.4F
PORT WASHINGTON  2200   52     180/  6/ 11 1018.6F
ATWATER BUOY     2300   52     180/  8/  8 1018.9R
MILWAUKEE LAKESH 2200   52     150/ 11/ 14   N/A
S MID LAKE BUOY  2250   55 54  170/ 12/ 14 1018.6F   2/ 4
KENOSHA   LAKESH 2300   54     160/  7/  9 1017.3F
$$

TC  - TEMPERATURE IN CELSIUS
VSB - VISIBILITY IN STATUTE MILES
WCI - WIND CHILL INDEX
HX  - HEAT INDEX




USA.gov is the U.S. government's official web portal to all federal, state and local government web resources and services.